This demonstration page uses our WeatherBlox Daily Observations layout. Learn more.

36.17497, -115.13722

Hourly Observations for July 21, 2015

Temp ( °F °C ) Dew Point ( °F °C ) Humidity (%) Winds ( mph kmh ) Pressure ( in mb ) Visibility ( mi km ) Precip ( " mm )
12:53 am 00:53 Clear 79 26 57 14 48 48 NW 6 9 29.85 1011 10 16.09344 0 0
1:53 am 01:53 Clear 75 24 59 15 57 57 NW 3 6 29.88 1012 10 16.09344 0 0
2:53 am 02:53 Clear 77 25 59 15 54 54 NW 3 6 29.85 1011 10 16.09344 0 0
3:53 am 03:53 Clear 75 24 57 14 54 54 NNW 5 7 29.88 1012 10 16.09344 0 0
4:53 am 04:53 Clear 73 23 57 14 57 57 N 6 9 29.85 1011 10 16.09344 0 0
5:53 am 05:53 Sunny 75 24 57 14 54 54 N 7 11 29.88 1012 10 16.09344 0 0
6:53 am 06:53 Sunny 75 24 57 14 54 54 NNW 5 7 29.88 1012 10 16.09344 0 0
7:53 am 07:53 Sunny 79 26 57 14 48 48 N 6 9 29.85 1011 10 16.09344 0 0
8:53 am 08:53 Sunny 81 27 57 14 45 45 Calm 29.85 1011 10 16.09344 0 0
9:53 am 09:53 Sunny 84 29 57 14 40 40 ESE 7 11 29.8 1009 10 16.09344 0 0
10:53 am 10:53 Sunny 88 31 57 14 35 35 Calm 29.8 1009 10 16.09344 0 0
11:53 am 11:53 Sunny 88 31 55 13 33 33 N 5 7 29.8 1009 10 16.09344 0 0
12:53 pm 12:53 Sunny 91 33 55 13 30 30 SSE 10 17 29.74 1007 10 16.09344 0 0
1:53 pm 13:53 Sunny 91 33 52 11 26 26 SSW 8 13 29.71 1006 10 16.09344 0 0
2:53 pm 14:53 Mostly Sunny 97 36 46 8 18 18 ESE 13 20 29.62 1003 10 16.09344 0 0
3:53 pm 15:53 Mostly Sunny 97 36 48 9 19 19 W 9 15 29.59 1002 10 16.09344 0 0
4:53 pm 16:53 Mostly Sunny 97 36 45 7 17 17 SW 12 19 29.59 1002 10 16.09344 0 0
5:53 pm 17:53 Sunny 97 36 46 8 18 18 WSW 13 20 29.56 1001 10 16.09344 0 0
6:53 pm 18:53 Sunny 97 36 45 7 17 17 SSW 6 9 29.53 1000 10 16.09344 0 0
7:53 pm 19:53 Sunny 93 34 43 6 17 17 W 10 17 29.59 1002 10 16.09344 0 0
8:53 pm 20:53 Clear 91 33 43 6 18 18 WNW 9 15 29.59 1002 10 16.09344 0 0
9:53 pm 21:53 Cloudy 91 33 43 6 18 18 W 6 9 29.62 1003 10 16.09344 0 0
10:53 pm 22:53 Mostly Clear 90 32 45 7 21 21 WNW 5 7 29.62 1003 10 16.09344 0 0
11:53 pm 23:53 Mostly Clear 88 31 45 7 22 22 SW 7 11 29.62 1003 10 16.09344 0 0

Powered by AerisWeather